C/2017 M4 ( ATLAS )

Japanese version
Home page
Updated on July 8, 2017

---------------------------------------------------------------------

* Profile

Discovery Date June 21, 2017
Magnitude 18.3 mag
Discoverer Asteroid Terrestrial-impact Last Alert System (ATLAS) Team

* Pictures

* Orbital Elements

Epoch 2018 Dec. 28.0 TT = JDT 2458480.5
T 2019 Jan. 15.65301 TT                                 MPCW
q   3.2433412            (2000.0)            P               Q
z  -0.0030611      Peri.  167.59578     -0.34567001     -0.32841726
 +/-0.0005226      Node    65.91150     -0.92202303     +0.29289325
e   1.0099282      Incl.  105.66499     -0.17431517     -0.89797307
From 121 observations 2017 June 16-July 5, mean residual 0".3.

* Finding Charts

* Magnitudes Graph

        m1 = 6.0 + 5 log d + 10.0 log r

---------------------------------------------------------------------

The orbital elements are published on M.P.E.C. 2017-N58.
The charts are made with StellaNavigator Ver.10 (AstroArts).
The magnitudes graphs are made with Comet for Windows.

---------------------------------------------------------------------

Copyright(C) Seiichi Yoshida (comet@aerith.net). All rights reserved.